Hollywood, FL

1:03 PM EDT on March 23, 2017 (GMT -0400)
North Perry

Weather History for KHWO - January, 2013

Change the Weather History Date:

Tuesday, January 8, 2013

  Actual Average (KFLL) Record (KFLL)
Temperature  
Mean Temperature 76 °F -  
Max Temperature 82 °F 77 °F 86 °F (1990)
Min Temperature 70 °F 60 °F 37 °F (1970)
Cooling Degree Days 11    
Growing Degree Days 26 (Base 50)    
Moisture  
Dew Point 70 °F    
Average Humidity 81    
Maximum Humidity 97    
Minimum Humidity 67    
Precipitation  
Precipitation 0.04 in - - ()
Sea Level Pressure  
Sea Level Pressure 30.16 in    
Wind  
Wind Speed 7 mph (ESE)    
Max Wind Speed 16 mph    
Max Gust Speed 25 mph    
Visibility 10 miles    
Events Rain    
Averages and records for this station are not official NWS values.
T = Trace of Precipitation, MM = Missing Value Source: NWS Daily Summary

Daily Weather History Graph

Daily Weather History Graph

Search for Another Location

Airport or City:

Trip Planner

Search our weather history database for the weather conditions in past years. The results will help you decide how hot, cold, wet, or windy it might be!

Date:

Astronomy

Jan. 08, 2013 Rise Set
Actual Time 7:09 AM EST 5:46 PM EST
Civil Twilight 6:44 AM EST 6:11 PM EST
Nautical Twilight 6:16 AM EST 6:39 PM EST
Astronomical Twilight 5:48 AM EST 7:07 PM EST
Moon 3:42 AM EST (1/8) 2:46 PM EST (1/8)
Length of Visible Light 11h 26m
Length of Day
10h 36m
Waning Crescent, 14% of the Moon is Illuminated
Jan 8
Waning Crescent
Jan 11
New
Jan 18
First Quarter
Jan 26
Full
Feb 3
Last Quarter

Hourly Weather History & Observations

Time (EST) Temp. Heat Index Dew Point Humidity Pressure Visibility Wind Dir Wind Speed Gust Speed Precip Events Conditions
12:53 AM 70.0 °F - 66.9 °F 90% 30.12 in 10.0 mi Calm Calm - N/A   Scattered Clouds
1:53 AM 70.0 °F - 68.0 °F 93% 30.11 in 10.0 mi NNW 3.5 mph - 0.03 in   Overcast
2:39 AM 71.6 °F - 69.8 °F 94% 30.10 in 10.0 mi Calm Calm - 0.00 in   Overcast
2:53 AM 71.1 °F - 69.1 °F 93% 30.10 in 10.0 mi Calm Calm - 0.00 in   Mostly Cloudy
3:53 AM 70.0 °F - 69.1 °F 97% 30.09 in 10.0 mi Calm Calm - N/A   Partly Cloudy
4:53 AM 70.0 °F - 69.1 °F 97% 30.10 in 10.0 mi Calm Calm - N/A   Partly Cloudy
5:53 AM 70.0 °F - 69.1 °F 97% 30.12 in 10.0 mi Calm Calm - N/A   Partly Cloudy
6:53 AM 70.0 °F - 68.0 °F 93% 30.14 in 10.0 mi Calm Calm - N/A   Scattered Clouds
7:53 AM 70.0 °F - 69.1 °F 97% 30.17 in 10.0 mi East 4.6 mph - N/A   Clear
8:53 AM 75.9 °F - 71.1 °F 85% 30.20 in 10.0 mi East 9.2 mph - N/A   Partly Cloudy
10:53 AM 80.1 °F 82.9 °F 69.1 °F 69% 30.21 in 10.0 mi ESE 12.7 mph - N/A   Scattered Clouds
11:53 AM 82.0 °F 85.9 °F 70.0 °F 67% 30.19 in 10.0 mi ESE 13.8 mph - N/A   Scattered Clouds
12:03 PM 80.6 °F 83.9 °F 69.8 °F 70% 30.18 in 10.0 mi SE 15.0 mph - N/A   Mostly Cloudy
12:26 PM 80.6 °F 83.9 °F 69.8 °F 70% 30.18 in 10.0 mi SE 16.1 mph - N/A   Mostly Cloudy
12:40 PM 82.4 °F 87.2 °F 71.6 °F 70% 30.17 in 10.0 mi ESE 15.0 mph - N/A   Mostly Cloudy
12:53 PM 81.0 °F 84.4 °F 70.0 °F 69% 30.17 in 10.0 mi ESE 15.0 mph - N/A   Mostly Cloudy
1:16 PM 80.6 °F 83.9 °F 69.8 °F 70% 30.16 in 10.0 mi ESE 15.0 mph - N/A   Mostly Cloudy
1:24 PM 80.6 °F 83.9 °F 69.8 °F 70% 30.16 in 10.0 mi ESE 15.0 mph - N/A   Overcast
1:53 PM 80.1 °F 83.2 °F 70.0 °F 71% 30.15 in 10.0 mi ESE 16.1 mph - N/A   Overcast
2:53 PM 80.1 °F 82.9 °F 69.1 °F 69% 30.14 in 10.0 mi ESE 13.8 mph 19.6 mph N/A   Mostly Cloudy
3:49 PM 80.6 °F 83.9 °F 69.8 °F 70% 30.15 in 10.0 mi ESE 15.0 mph - N/A   Scattered Clouds
3:53 PM 79.0 °F - 69.1 °F 72% 30.15 in 10.0 mi ESE 12.7 mph - N/A   Mostly Cloudy
4:14 PM 78.8 °F - 69.8 °F 74% 30.15 in 10.0 mi ESE 16.1 mph - N/A   Mostly Cloudy
4:53 PM 78.1 °F - 70.0 °F 76% 30.16 in 10.0 mi ESE 11.5 mph - N/A   Mostly Cloudy
5:15 PM 78.8 °F - 69.8 °F 74% 30.16 in 10.0 mi East 12.7 mph - N/A   Scattered Clouds
5:53 PM 77.0 °F - 71.1 °F 82% 30.17 in 10.0 mi East 11.5 mph - N/A   Scattered Clouds
6:53 PM 75.9 °F - 71.1 °F 85% 30.17 in 10.0 mi East 8.1 mph - N/A   Partly Cloudy
7:53 PM 77.0 °F - 71.1 °F 82% 30.18 in 10.0 mi East 12.7 mph - N/A   Mostly Cloudy
8:50 PM 77.0 °F - 71.6 °F 83% 30.18 in 10.0 mi East 10.4 mph - N/A   Mostly Cloudy
8:53 PM 77.0 °F - 71.1 °F 82% 30.18 in 10.0 mi East 11.5 mph - N/A   Mostly Cloudy
9:53 PM 73.9 °F - 70.0 °F 87% 30.19 in 10.0 mi East 11.5 mph 25.3 mph 0.01 in Rain Light Rain
10:53 PM 75.0 °F - 71.1 °F 87% 30.19 in 10.0 mi ESE 8.1 mph - 0.00 in   Overcast